Starlink 32324

operational
NORAD ID: 61863 Int'l Des: 2024-202 Owner: SPXS Country: US Constellation: starlink
LEOCIRCULAR

About Starlink 32324

Description loading...

Live Position

Loading 3D Globe...

Upcoming Passes

Altitude History

Altitude vs Time

uPlot chart will show altitude changes over time

Two-Line Element Set

1 61863U 24202U 25353.32003321 -.00002829 00000-0 -93368-4 0 9992
2 61863 43.0036 332.0889 0001597 282.3115 77.7558 15.27560849 63037
Epoch: Dec 19, 2025 • Age: 28 hours

Current Status

Altitude 492.3 km
Velocity 7.62 km/s
Sub-Earth Point -35.53°S, 11.49°E
Launch Date Nov 7, 2024
Age 1.1 years
Type internet

Technical Details

Classification Payload
Mass 730.00 kg
Dry Mass 700.00 kg
Total Mass 730.00 kg
Length 0.30 m
Diameter 4.10 m
Span 29.00 m
Shape Box + pan
Manufacturer SPXS
Bus Type Starlink V2M
Phase Status In Orbit
Owner/State SPXS/US

Large Constellations

Loading constellations...